Theta_e
303 295 290 294 296 295 292 289 288 292 297 294 293 293 296 298 298 298 298 299 300 301 304 314 320 321 322 323 326 327 327 329 328 327 325 326 325 327 328 328 328 327 326 326
297 291 295 297 296 295 293 289 288 292 296 294 292 292 295 297 297 297 299 298 299 301 303 304 313 318 319 321 323 326 327 328 329 329 328 327 327 327 329 329 327 327 327 325
291 295 299 296 293 292 291 289 289 289 291 292 290 288 290 295 297 299 299 300 300 301 303 304 303 307 318 320 321 323 326 328 329 330 330 329 327 326 325 327 327 327 327 326
293 298 296 294 292 293 288 294 294 293 288 282 288 278 287 291 292 293 296 299 302 302 303 304 305 303 304 314 319 321 323 325 327 329 327 326 326 325 327 327 328 328 327 326
291 293 293 292 293 295 291 296 293 291 288 286 284 281 283 288 288 290 292 296 299 303 301 302 303 305 306 306 306 311 317 322 325 326 327 325 325 326 328 325 325 326 326 326
294 298 296 294 296 296 296 294 293 291 288 276 284 282 281 286 288 291 292 295 298 298 299 300 300 302 302 303 307 309 311 313 318 323 325 325 325 325 323 321 322 324 326 326
291 293 297 298 292 295 295 289 278 277 275 275 283 282 285 289 292 292 293 294 295 296 298 299 297 299 300 300 302 304 307 308 310 311 314 322 324 324 323 322 322 321 323 324
281 279 293 297 294 290 291 289 280 273 276 277 282 278 283 290 292 293 294 294 295 295 298 298 299 298 299 300 301 302 303 305 308 309 309 311 319 322 323 322 320 322 323 324
283 283 293 295 296 295 290 287 291 283 275 276 279 282 287 291 291 292 291 292 294 296 297 298 299 299 299 299 300 302 303 303 304 306 308 309 313 318 319 319 320 320 321 321
288 281 290 292 294 294 292 294 284 285 273 270 277 277 280 285 288 289 290 291 293 294 296 297 298 299 301 302 303 304 304 304 305 305 306 307 311 314 317 316 317 317 320 320
290 286 284 290 287 287 288 287 288 288 283 276 274 277 286 287 289 290 290 291 292 293 294 296 297 298 301 301 301 303 304 305 307 310 310 310 310 312 314 315 315 315 315 316
291 286 278 284 289 292 291 288 289 282 279 282 281 280 289 289 289 292 292 292 294 294 295 294 296 298 298 299 299 300 302 303 305 309 310 311 312 312 312 313 313 312 310 308
289 285 275 276 282 287 286 289 290 289 287 282 277 281 292 292 292 292 292 293 293 295 293 294 294 296 298 298 299 299 300 301 302 303 305 306 307 308 309 309 309 306 304 303
291 285 281 274 278 283 283 283 284 284 281 282 283 285 289 291 290 291 292 293 294 294 295 294 294 295 297 299 299 299 299 300 300 301 301 301 302 303 304 305 304 302 301 300
287 277 282 283 284 284 283 282 283 281 282 279 282 283 286 289 290 291 293 295 294 295 295 295 295 295 296 297 298 299 299 299 299 300 299 299 300 300 301 300 300 299 297 296
287 271 276 272 281 281 279 282 283 283 283 283 283 282 290 290 291 290 292 293 293 294 296 297 297 297 297 297 297 298 298 298 298 298 298 299 298 298 298 298 297 296 294 293
281 275 268 267 275 272 268 276 281 282 285 284 280 284 288 287 288 288 291 293 292 293 295 296 297 297 296 293 293 292 293 295 295 295 295 295 295 295 296 295 295 293 292 291
276 275 274 268 266 262 276 282 283 282 284 285 285 286 288 288 290 288 291 290 290 293 292 291 289 289 288 287 288 291 291 290 289 287 286 285 285 288 290 291 291 291 290 289
284 277 266 267 258 270 276 280 279 278 279 284 284 286 287 289 289 285 289 291 290 289 288 287 285 283 282 281 284 285 283 281 280 280 280 281 282 283 285 286 287 287 287 286
282 281 275 264 267 260 275 281 284 283 274 285 285 286 286 287 281 285 289 288 287 284 282 280 279 279 277 277 280 279 278 277 276 278 278 279 279 280 280 281 282 281 283 284
263 265 273 273 272 275 279 282 284 273 276 285 285 285 285 284 285 288 287 285 283 280 279 278 276 275 274 275 277 276 274 273 275 277 277 276 276 278 278 278 279 280 280 280
268 265 267 262 266 266 282 281 278 283 284 285 286 288 287 288 288 285 283 281 279 277 276 276 274 273 272 273 275 272 271 273 274 274 274 273 274 275 275 274 276 276 277 277
269 275 269 272 271 281 282 283 286 287 286 286 286 286 287 287 286 283 282 278 276 275 275 274 273 271 270 270 270 270 269 271 272 272 272 271 272 273 274 273 273 273 274 275
278 281 277 278 280 282 284 286 286 286 284 284 284 283 281 282 281 280 280 277 275 274 273 273 271 269 268 268 268 268 269 270 268 269 271 272 271 272 273 273 273 272 271 271
279 280 279 278 281 282 283 284 285 285 283 282 280 279 278 277 278 278 276 274 273 272 271 270 269 268 267 267 267 266 267 268 271 270 271 271 271 271 270 272 272 272 274 273
281 280 277 276 282 282 283 284 282 283 281 279 278 277 276 276 275 275 272 272 271 270 269 268 267 265 265 265 265 265 266 267 269 269 269 270 270 270 271 271 271 276 276 276
Wind_Speed
4 3 7 7 6 5 2 2 5 5 4 2 5 5 11 7 8 10 9 9 9 8 7 9 12 15 15 14 15 17 15 16 13 10 10 10 12 11 9 9 13 11 9 11
2 9 5 5 6 7 9 5 5 7 2 1 5 9 11 10 8 10 11 9 10 8 8 8 8 7 12 16 17 16 17 15 15 11 11 9 10 10 9 8 8 12 12 11
5 3 8 9 6 5 2 4 3 6 0 3 3 8 7 9 7 13 11 9 7 12 12 10 8 9 9 12 15 15 16 18 16 16 8 7 4 4 6 8 9 11 13 13
7 9 5 1 5 5 3 1 5 4 4 4 3 8 6 7 11 5 11 11 16 14 10 7 8 8 8 10 8 10 12 14 15 16 11 14 12 12 11 10 9 9 11 13
7 7 8 9 4 8 4 4 3 3 2 3 2 5 9 5 7 10 8 11 14 16 9 9 8 9 8 7 8 8 7 9 12 15 16 12 14 10 9 7 9 10 9 12
6 2 5 8 4 4 4 5 5 4 3 4 7 7 7 8 9 7 3 8 9 7 7 8 5 3 3 1 1 3 6 9 9 12 17 18 18 15 9 8 8 9 9 9
5 3 2 1 6 3 5 6 2 2 1 8 5 8 11 7 10 8 9 10 6 3 3 2 2 3 5 6 5 5 5 7 7 7 6 10 15 16 16 13 10 9 6 7
6 6 8 5 5 7 9 10 6 8 5 4 1 9 8 6 6 6 5 4 2 3 3 5 6 6 7 8 7 5 6 7 7 7 7 7 8 9 10 9 7 8 9 9
7 6 3 4 5 8 3 9 7 3 2 3 5 8 8 7 9 8 8 6 7 7 6 6 6 5 7 6 6 5 6 7 7 7 7 8 8 9 9 10 7 7 7 6
3 1 1 6 2 4 6 7 4 3 4 5 6 5 7 8 4 4 6 3 4 5 7 6 6 6 3 2 2 4 5 7 7 7 6 6 7 7 7 6 7 7 9 9
5 4 4 3 5 7 3 3 2 1 5 5 2 6 7 8 7 8 5 1 2 3 4 5 5 5 4 4 4 4 4 5 6 5 4 5 5 6 6 6 6 6 6 8
7 4 6 10 3 1 3 5 7 4 4 4 6 10 3 4 5 7 7 8 10 9 7 5 4 4 4 6 5 5 5 4 5 4 4 5 4 4 5 5 6 6 7 5
2 3 3 6 6 4 3 1 3 7 4 13 4 10 4 8 11 5 7 8 5 8 10 9 6 5 4 3 5 6 5 6 5 4 4 5 6 5 5 5 5 5 6 6
7 2 3 4 3 2 0 5 6 4 4 6 10 23 16 22 10 14 12 10 9 6 7 7 8 8 6 6 6 6 7 6 6 5 5 6 6 6 6 5 6 6 6 7
4 3 3 4 6 3 3 3 3 4 8 6 12 15 20 12 10 10 10 15 12 8 8 8 7 8 9 8 8 7 6 5 4 6 6 8 6 6 6 7 6 5 6 6
1 2 3 5 7 8 8 13 15 15 15 12 17 19 22 9 7 7 8 8 8 12 14 13 9 10 10 9 7 7 7 6 2 6 6 5 5 6 6 6 6 7 6 5
2 4 4 7 1 3 5 12 12 8 11 13 14 19 20 15 9 8 9 9 10 12 12 10 10 8 8 9 8 8 8 7 7 6 6 7 7 6 6 5 5 6 6 4
5 5 2 5 5 1 10 4 8 15 17 14 13 16 18 18 16 8 9 8 10 5 5 7 7 8 7 8 10 9 8 8 8 8 8 9 9 8 7 5 6 4 4 6
7 4 1 3 5 7 10 14 4 6 15 14 15 18 20 19 18 7 6 2 1 3 3 3 5 6 7 9 9 6 8 7 8 8 8 8 7 7 7 6 6 3 2 3
3 1 3 3 5 8 9 12 10 12 11 14 15 16 18 17 14 16 3 3 3 4 4 4 5 4 7 10 7 6 7 7 8 8 7 7 8 7 7 6 6 3 1 3
3 1 10 10 10 7 13 12 5 8 13 15 5 7 6 5 5 4 1 3 4 4 6 5 5 6 7 8 6 7 8 9 9 7 7 8 8 7 7 5 4 4 4 5
6 5 5 1 4 11 7 3 8 16 6 5 5 5 8 13 9 1 4 3 2 4 5 6 4 6 7 8 5 6 8 8 7 6 7 7 7 6 6 6 7 6 4 5
3 8 5 9 10 7 5 8 5 3 7 10 6 11 10 7 6 3 3 3 2 3 4 5 3 4 6 7 7 5 5 6 5 5 5 5 5 6 7 7 7 5 7 5
6 6 10 15 14 20 18 18 15 12 9 8 7 4 2 6 3 4 4 3 2 2 2 2 3 4 4 5 6 4 5 5 4 4 4 5 5 6 6 5 5 6 5 5
8 5 15 19 18 18 16 15 15 13 1 1 2 2 1 3 4 2 2 2 1 2 3 3 3 3 4 4 5 6 7 6 3 3 4 6 5 5 4 5 4 5 4 4
9 19 10 17 15 14 17 9 3 6 5 4 3 3 2 1 3 0 3 3 2 3 2 4 5 4 4 4 4 5 6 7 6 4 4 4 4 4 4 4 4 11 10 8
Wind_Direction
209 169 196 209 255 288 323 354 311 269 319 161 248 245 273 277 285 277 260 257 262 255 242 227 213 195 192 192 194 198 189 186 180 189 194 206 217 221 223 217 217 205 202 207
165 237 214 214 241 252 260 267 254 292 178 204 272 263 260 265 250 243 250 244 243 260 269 234 224 227 195 196 197 199 201 188 191 192 198 201 206 225 226 222 204 205 207 195
179 222 206 204 241 251 220 221 222 234 344 263 280 274 267 268 268 254 247 240 240 223 239 255 225 212 210 212 204 200 197 196 197 200 190 204 200 223 206 214 216 211 203 198
226 252 288 276 221 182 251 292 233 269 355 236 49 278 276 298 289 245 255 239 242 243 237 233 247 249 220 229 213 207 196 198 199 195 196 203 209 214 221 217 219 213 200 199
220 186 194 209 223 173 205 75 45 192 164 20 297 322 286 275 299 287 253 246 240 241 235 236 236 242 240 231 220 228 236 212 197 194 202 205 214 222 220 211 201 207 205 199
223 310 168 189 187 157 149 97 42 44 84 283 189 195 207 224 215 245 281 263 265 273 262 265 277 295 283 11 269 266 240 225 208 199 203 207 213 215 212 205 203 209 210 208
3 256 294 224 150 135 144 113 41 7 8 236 220 205 253 286 274 219 256 268 265 268 90 38 328 290 284 283 265 244 245 261 254 239 219 221 219 216 215 216 214 200 197 203
175 288 185 192 185 179 180 166 166 197 201 271 212 236 256 230 258 231 264 321 334 160 227 264 278 277 276 274 270 266 251 251 265 276 259 230 228 227 225 210 201 206 207 208
184 252 147 209 175 153 191 209 209 43 51 74 244 292 302 272 286 311 12 20 353 324 291 291 300 292 291 273 266 258 269 273 273 257 247 248 230 211 212 212 204 199 193 190
250 218 227 208 95 270 158 156 154 186 201 238 256 252 238 300 287 61 57 8 330 344 348 330 318 320 319 319 288 292 269 261 261 260 251 256 247 226 222 206 209 197 201 194
192 122 295 119 197 181 206 220 203 212 175 201 266 259 236 217 159 129 200 186 27 329 323 315 319 328 319 308 292 277 273 280 289 287 270 249 243 231 226 218 215 206 193 190
202 161 197 223 252 35 293 251 211 180 235 243 261 258 327 126 181 35 15 356 342 335 297 295 298 305 315 301 302 281 282 283 281 289 290 271 245 215 212 211 198 179 188 179
193 211 210 345 355 12 208 6 324 303 269 246 248 263 277 319 336 8 1 343 341 350 329 320 318 271 228 257 279 268 256 250 254 254 260 278 282 268 227 223 212 193 176 178
69 89 194 169 133 23 231 35 24 4 283 310 243 271 289 305 335 333 327 323 316 311 291 292 303 294 278 258 245 254 256 240 239 231 244 253 250 245 252 243 219 202 188 179
105 182 194 218 164 156 220 289 295 269 277 271 303 301 289 281 287 296 299 309 315 317 304 291 261 258 269 265 259 260 261 255 222 237 239 243 242 238 235 228 223 213 196 194
83 226 118 286 204 210 228 224 222 225 239 240 250 264 270 260 248 276 282 291 296 294 294 296 302 308 292 275 301 302 289 301 233 257 262 289 271 256 246 245 223 199 203 197
145 128 78 257 92 69 348 232 219 225 231 226 243 254 282 280 259 257 253 263 273 285 281 287 307 326 4 13 0 1 349 354 1 354 349 354 335 293 269 259 231 225 207 175
158 120 139 260 38 276 238 233 225 232 247 239 255 268 267 272 268 246 255 245 271 321 8 356 346 349 7 357 355 344 10 21 20 20 13 2 352 338 320 283 246 229 198 195
177 126 307 163 202 291 302 276 252 230 263 247 249 259 265 275 288 289 249 111 102 347 31 2 1 360 358 1 344 3 20 22 26 19 8 357 353 343 334 321 301 297 229 182
137 95 177 80 230 225 250 264 240 256 266 272 251 258 271 282 286 286 41 35 37 34 6 26 18 35 17 355 350 23 24 28 23 6 -0 357 359 5 6 353 351 329 356 101
38 8 217 239 253 254 236 251 355 291 267 262 305 293 305 301 269 276 341 5 26 32 13 14 32 41 15 354 356 34 25 19 355 0 17 13 4 7 1 351 359 6 40 65
164 166 208 42 219 277 217 281 203 254 333 298 292 245 272 285 275 187 189 174 26 1 5 20 30 34 15 6 9 47 36 358 353 17 22 20 15 16 14 15 10 9 36 77
274 194 207 188 214 241 245 227 253 256 246 265 234 266 243 257 263 306 276 167 88 49 18 18 26 52 32 8 10 41 11 2 9 21 27 17 19 29 22 38 33 20 16 23
257 218 251 267 253 263 264 273 273 274 269 261 245 238 210 260 318 284 230 178 134 61 34 42 51 36 30 12 16 14 350 341 12 21 24 35 28 27 44 47 55 59 46 31
235 273 255 265 271 277 267 263 269 280 263 80 31 332 265 289 293 307 150 127 84 61 37 23 49 61 33 11 359 349 351 332 53 50 37 40 32 17 11 59 65 64 49 78
216 253 253 259 267 268 278 281 256 232 215 185 186 195 181 22 333 29 102 65 65 58 41 60 29 40 24 9 356 1 353 350 354 39 28 32 43 41 31 10 33 52 62 64